Flag Weather past 2 weeks in Friesoythe, Lower Saxony, Germany

Now
43 °F

Passing clouds.


Feels Like: 39 °F
Forecast: 39 / 48 °F
Wind: 6 mph from West

Location: Meppen-Mil

Current Time: Nov 24, 2014 at 9:29:55 AM

Latest Report: Nov 24, 2014 at 8:20 AM


Visibility: N/A

Pressure: 30.15 "Hg

Humidity: 93%

Dew point: 41 °F

Location of FriesoytheLocation

Historic Weather in Friesoythe — Graph

°F

Friesoythe temperature yesterday

Maximum temperature yesterday: 57 °F (at 1:20 PM)
Minimum temperature yesterday: 43 °F (at 7:20 AM)
Average temperature yesterday: 50 °F

Past Weeks' High & Low Weather Summary

 TemperatureHumidityPressure
High57 °F (Nov 23, 1:20 PM)100% (Nov 9, 11:20 PM)30.36 "Hg (Nov 9, 11:20 PM)
Low28 °F (Nov 21, 3:20 AM)63% (Nov 9, 2:20 PM)29.47 "Hg (Nov 16, 1:20 PM)
Average46 °F88%29.88 "Hg
* Reported Nov 9 8:20 AM — Nov 24 8:20 AM, Friesoythe, Weather by CustomWeather, © 2014

Note: Actual official high and low records may vary slightly from our data, if they occured in-between our weather recording intervals... More about our weather records

Advertising

Friesoythe weather history for previous 24 hours

 ConditionsComfort  
Time TempWeatherWind HumidityBarometerVisibility
8:20 AM
Nov 24
43 °FPassing clouds.6 mph93%30.15 "HgN/A
7:20 AM45 °FPassing clouds.6 mph93%30.12 "HgN/A
6:20 AM45 °FQuite cool.6 mph93%30.09 "HgN/A
5:20 AM46 °FCool.7 mph93%30.07 "HgN/A
4:20 AM48 °FCool.7 mph94%30.04 "Hg4 mi
3:20 AM48 °FCool.7 mph94%30.01 "Hg2 mi
2:20 AM50 °FCool.6 mph94%29.98 "Hg4 mi
1:20 AM52 °FCool.7 mph88%29.95 "Hg1 mi
12:20 AM54 °FCool.7 mph77%29.95 "HgN/A
11:20 PM
Nov 23
54 °FCool.7 mph77%29.92 "HgN/A
10:20 PM54 °FCool.6 mph82%29.92 "Hg6 mi
9:20 PM54 °FCool.5 mph77%29.92 "Hg5 mi
8:20 PM54 °FCool.5 mph77%29.92 "Hg6 mi
7:20 PM54 °FCool.5 mph77%29.95 "Hg6 mi
6:20 PM54 °FCool.5 mph77%29.95 "Hg6 mi
5:20 PM54 °FCool.5 mph82%29.95 "Hg6 mi
4:20 PM55 °FCool.3 mph77%29.95 "Hg6 mi
3:20 PM57 °FCool.5 mph72%29.98 "Hg6 mi
2:20 PM57 °FCool.7 mph72%29.98 "Hg6 mi
1:20 PM57 °FCool.6 mph72%30.01 "Hg6 mi
12:20 PM55 °FCool.6 mph72%30.04 "Hg5 mi
11:20 AM52 °FCool.5 mph82%30.07 "Hg5 mi
10:20 AM48 °FCool.3 mph87%30.07 "Hg4 mi
9:20 AM45 °FQuite cool.3 mph93%30.07 "Hg3 mi
Weather by CustomWeather, © 2014

See weather overviewHow to use our weather pages